Location: Franzen
(48.6167°N, 15.3833°E)
Time: 13:51:08
(UTC+00:00)

Landsat 7 - Pass Details

Date: 22 April 2021
Orbit: 701 x 703 km, 98.0° (Epoch: 16 May)

Event Time Altitude Azimuth Distance (km) Brightness Sun altitude
Exits shadow 19:55:11 19° 178° (S) 1,632 5.3 -16.9°
Maximum altitude 19:58:32 68° 258° (WSW) 762 4.1 -17.3°
Drops below altitude 10° 20:03:18 10° 342° (NNW) 2,181 7.3 -17.9°
Sets 20:05:35 0° 345° (NNW) 3,104 8.2 -18.1°
